Location: Ostrava
(49.8330°N, 18.2830°E)
Time: 04:18:34
(UTC+02:00)

Iridium 39 - Visible Passes

Search period start: 01 May 2016 00:00
Search period end: 11 May 2016 00:00
Orbit: 776 x 779 km, 86.4° (Epoch: 30 April)

Date Brightness Start Highest point End Pass type
(mag) Time Alt. Az. Time Alt. Az. Time Alt. Az.
01 May 8.2 01:00:02 13° W 01:02:16 16° WNW 01:05:27 10° NNW visible
01 May 6.4 22:45:54 38° SE 22:47:21 49° E 22:52:23 10° NNE visible
02 May 7.7 00:26:22 21° WSW 00:28:21 26° WNW 00:32:42 10° NNW visible
02 May 7.1 22:12:13 24° ESE 22:14:00 29° E 22:18:29 10° NNE visible
02 May 6.9 23:52:40 31° SW 23:54:34 42° W 23:59:33 10° N visible
03 May 7.7 21:38:31 14° ESE 21:40:48 18° ENE 21:44:14 10° NE visible
03 May 6.1 23:18:58 39° SSW 23:20:55 72° W 23:26:10 10° N visible
04 May 8.5 01:00:51 10° W 01:02:40 12° WNW 01:04:30 10° NW visible
04 May 8.1 21:06:49 10° E 21:07:42 10° ENE 21:08:35 10° ENE visible
04 May 6.0 22:45:16 36° SSE 22:47:23 68° E 22:52:36 10° N visible
05 May 8.1 00:25:43 13° WSW 00:28:40 19° WNW 00:32:24 10° NNW visible
05 May 6.6 22:11:32 25° SE 22:13:58 40° E 22:18:50 10° NNE visible
05 May 7.4 23:52:00 19° SW 23:54:48 31° WNW 23:59:27 10° NNW visible
06 May 7.3 21:37:48 15° ESE 21:40:41 24° E 21:44:49 10° NNE visible
06 May 6.6 23:18:15 25° SSW 23:21:04 52° W 23:26:11 10° N visible
07 May 7.9 21:04:44 10° ESE 21:07:31 15° ENE 21:10:18 10° NE visible
07 May 6.0 22:44:30 27° S 22:47:28 88° W 22:52:43 10° N visible
08 May 8.4 00:26:13 10° W 00:29:01 14° WNW 00:31:50 10° NNW visible
08 May 6.2 22:10:44 22° SSE 22:13:58 55° E 22:19:05 10° NNE visible
08 May 7.9 23:51:10 11° WSW 23:55:04 23° WNW 23:59:14 10° NNW visible
09 May 6.9 21:36:57 15° SE 21:40:37 33° E 21:45:14 10° NNE visible
09 May 7.2 23:17:24 15° SW 23:21:16 38° WNW 23:26:08 10° N visible
10 May 7.5 21:03:41 10° ESE 21:07:22 20° ENE 21:11:04 10° NNE visible
10 May 6.3 22:43:36 17° SSW 22:47:35 64° W 22:52:47 10° N visible
